| time (UTC) | temp F | wind direction | speed MPH | gust MPH | rain 1hr in | rain 24hr in | rain mn in | humidity % | barometer mb |
| 20260504231512 | 81 | 224 | 5.0 | 13.0 | 0.00 | 0.00 | 0.00 | 55 | 997.6 |
| 20260504230011 | 82 | 188 | 4.0 | 11.0 | 0.00 | 0.00 | 0.00 | 53 | 997.8 |
| 20260504224512 | 81 | 235 | 4.0 | 15.0 | 0.00 | 0.00 | 0.00 | 53 | 997.9 |
| 20260504223008 | 81 | 158 | 5.0 | 12.0 | 0.00 | 0.00 | 0.00 | 52 | 998.0 |
| 20260504221506 | 81 | 253 | 4.0 | 12.0 | 0.00 | 0.00 | 0.00 | 52 | 998.2 |
| 20260504220005 | 81 | 1 | 3.0 | 11.0 | 0.00 | 0.00 | 0.00 | 51 | 998.4 |
| 20260504214503 | 81 | 354 | 4.0 | 11.0 | 0.00 | 0.00 | 0.00 | 52 | 998.6 |
| 20260504213104 | 81 | 255 | 5.0 | 12.0 | 0.00 | 0.00 | 0.00 | 52 | 998.8 |
| 20260504211602 | 80 | 255 | 4.0 | 13.0 | 0.00 | 0.00 | 0.00 | 51 | 999.1 |
| 20260504204556 | 81 | 326 | 3.0 | 10.0 | 0.00 | 0.00 | 0.00 | 49 | 999.7 |
| 20260504203054 | 82 | 152 | 3.0 | 15.0 | 0.00 | 0.00 | 0.00 | 48 | 999.8 |
| 20260504201552 | 81 | 317 | 4.0 | 14.0 | 0.00 | 0.00 | 0.00 | 49 | 999.9 |
| 20260504200059 | 81 | 172 | 4.0 | 13.0 | 0.00 | 0.00 | 0.00 | 48 | 1000.2 |
| 20260504194547 | 81 | 30 | 5.0 | 15.0 | 0.00 | 0.00 | 0.00 | 47 | 1000.6 |
| 20260504193048 | 81 | 240 | 5.0 | 12.0 | 0.00 | 0.00 | 0.00 | 47 | 1000.8 |
| 20260504191552 | 81 | 240 | 4.0 | 11.0 | 0.00 | 0.00 | 0.00 | 46 | 1001.1 |
| 20260504190041 | 80 | 226 | 4.0 | 12.0 | 0.00 | 0.00 | 0.00 | 47 | 1001.1 |
| 20260504184540 | 79 | 211 | 5.0 | 16.0 | 0.00 | 0.00 | 0.00 | 48 | 1001.3 |
| 20260504183037 | 79 | 252 | 4.0 | 11.0 | 0.00 | 0.00 | 0.00 | 48 | 1001.6 |
| 20260504181533 | 78 | 308 | 5.0 | 12.0 | 0.00 | 0.00 | 0.00 | 49 | 1001.9 |
| 20260504180030 | 78 | 191 | 4.0 | 14.0 | 0.00 | 0.00 | 0.00 | 49 | 1002.0 |
| 20260504174527 | 78 | 232 | 4.0 | 13.0 | 0.00 | 0.00 | 0.00 | 49 | 1002.3 |
| 20260504173025 | 77 | 285 | 6.0 | 12.0 | 0.00 | 0.00 | 0.00 | 49 | 1002.7 |
| 20260504171524 | 77 | 150 | 5.0 | 12.0 | 0.00 | 0.00 | 0.00 | 49 | 1002.6 |
| 20260504081525 | 65 | 242 | 3.0 | 18.0 | 0.00 | 0.00 | 0.00 | 50 | 1005.9 |
| 20260504044540 | 69 | 280 | 3.0 | 11.0 | 0.00 | 0.00 | 0.00 | 43 | 1008.0 |
| 20260504043053 | 69 | 115 | 5.0 | 13.0 | 0.00 | 0.00 | 0.00 | 43 | 1008.1 |
| 20260504041539 | 69 | 205 | 4.0 | 9.0 | 0.00 | 0.00 | 0.00 | 43 | 1008.2 |
| 20260504040041 | 70 | 308 | 3.0 | 10.0 | 0.00 | 0.00 | 0.00 | 42 | 1008.3 |
| 20260504034545 | 70 | 181 | 3.0 | 11.0 | 0.00 | 0.00 | 0.00 | 41 | 1008.3 |
| 20260504033035 | 70 | 153 | 4.0 | 10.0 | 0.00 | 0.00 | 0.00 | 41 | 1008.4 |
| 20260504031544 | 71 | 319 | 4.0 | 9.0 | 0.00 | 0.00 | 0.00 | 40 | 1008.4 |
| 20260504030039 | 71 | 227 | 3.0 | 9.0 | 0.00 | 0.00 | 0.00 | 40 | 1008.4 |
| 20260504024536 | 71 | 228 | 2.0 | 12.0 | 0.00 | 0.00 | 0.00 | 41 | 1008.3 |
| 20260504023033 | 72 | 132 | 3.0 | 8.0 | 0.00 | 0.00 | 0.00 | 40 | 1008.3 |
| 20260504021541 | 72 | 119 | 3.0 | 11.0 | 0.00 | 0.00 | 0.00 | 39 | 1008.2 |
| 20260504020037 | 73 | 259 | 4.0 | 12.0 | 0.00 | 0.00 | 0.00 | 38 | 1008.1 |
| 20260504014530 | 73 | 241 | 4.0 | 10.0 | 0.00 | 0.00 | 0.00 | 37 | 1008.0 |
| 20260504013035 | 74 | 134 | 3.0 | 10.0 | 0.00 | 0.00 | 0.00 | 36 | 1007.8 |
| 20260504011530 | 75 | 222 | 3.0 | 8.0 | 0.00 | 0.00 | 0.00 | 34 | 1007.8 |
| 20260504010028 | 77 | 235 | 2.0 | 8.0 | 0.00 | 0.00 | 0.00 | 31 | 1008.0 |
| 20260504004539 | 78 | 160 | 3.0 | 10.0 | 0.00 | 0.00 | 0.00 | 30 | 1007.9 |
| 20260504003026 | 78 | 124 | 3.0 | 10.0 | 0.00 | 0.00 | 0.00 | 29 | 1008.0 |
| 20260504001533 | 80 | 280 | 5.0 | 14.0 | 0.00 | 0.00 | 0.00 | 28 | 1008.2 |
| 20260504000024 | 82 | 217 | 4.0 | 10.0 | 0.00 | 0.00 | 0.00 | 27 | 1008.3 |
| 20260503234524 | 82 | 163 | 3.0 | 10.0 | 0.00 | 0.00 | 0.00 | 26 | 1008.4 |
| 20260503233021 | 82 | 190 | 4.0 | 11.0 | 0.00 | 0.00 | 0.00 | 26 | 1008.4 |